Regional Weather Roundup
Issued by NWS

Home | Current Version | Previous Version | Text Only | Print | Product List | Glossary Off
Versions: 1 2 3 4 5 6 7 8 9 10 11 12 13 14 15 16 17 18 19 20 21 22 23 24 25 26 27

000
ASUS45 KCYS 280110
RWRWY

WYOMING REGIONAL WEATHER ROUNDUP
NATIONAL WEATHER SERVICE CHEYENNE WY
700 PM MDT FRI MAY 27 2016

NOTE:  "FAIR" INDICATES FEW OR NO CLOUDS BELOW 12,000 FEET
WITH NO SIGNIFICANT WEATHER AND/OR OBSTRUCTIONS TO VISIBILITY.

WYZ001-280200-
YELLOWSTONE NATIONAL PARK

CITY           SKY/WX    TMP DP  RH WIND       PRES   REMARKS
LK YELLOWSTONE   N/A     45  33  63 VRB6      30.01S
W YELLOWSTONE  NOT AVBL

$$
WYZ002>013-054>058-071-098>099-280200-
NORTHERN WYOMING

CITY           SKY/WX    TMP DP  RH WIND       PRES   REMARKS
JACKSON        PTSUNNY   54  36  50 W13G23    29.93R
CODY           PTSUNNY   57  48  72 N8        29.85R
GREYBULL       FAIR      70  34  26 NW7       29.78R
WORLAND        FAIR      70  35  27 W3        29.78R
SHERIDAN       FAIR      60  46  59 S7        29.83R
BUFFALO        CLOUDY    56  47  71 W10       29.88F
GILLETTE       FAIR      62  44  51 N6        29.84S
HULETT         MOCLDY    63  43  48 NE7       29.86R
NEWCASTLE      FAIR      59  43  55 SE12      29.86R

$$
WYZ014>020-022>026-101>103-280200-
CENTRAL WYOMING

CITY           SKY/WX    TMP DP  RH WIND       PRES   REMARKS
BIG PINEY      PTSUNNY   48  41  76 E9        29.97S
PINEDALE       CLOUDY    52  34  50 NW13      29.98S
DUBOIS         FAIR      52  30  43 N12       29.94S
LANDER         FAIR      63  38  39 N12       29.83R
RIVERTON       LGT RAIN  62  38  40 E10G22    29.84S
CASPER         CLOUDY    60  35  39 N13       29.87R
DOUGLAS          N/A    N/A N/A N/A MISG      29.88R

$$
WYZ021-027>030-104>119-280200-
SOUTHERN WYOMING

CITY           SKY/WX    TMP DP  RH WIND       PRES   REMARKS
EVANSTON       FAIR      56  32  40 W18       29.99S
KEMMERER         N/A     52  36  54 W9        30.00S
FORT BRIDGER   PTCLDY    55  37  50 NW13      30.03R
ROCK SPRINGS   FAIR      58  31  35 W13       29.93S
DIXON          MOCLDY    55  33  42 SW12      29.99R
RAWLINS        CLOUDY    54  34  46 S10       29.95R
SARATOGA       MOCLDY    46  36  66 SW14G24   29.96S
LARAMIE        PTSUNNY   53  34  48 CALM      29.95R
CHEYENNE       FAIR      51  40  65 NE13      29.93R
TORRINGTON     FAIR      57  49  74 S6        29.86S
PINE BLUFFS    FAIR      54  43  66 N9        29.91R

$$




USA.gov is the U.S. government's official web portal to all federal, state and local government web resources and services.